Weather History for Thomson, GA

Change the Weather History Date:

Friday, February 8, 2013

  Actual Average (KDBN) Record (KDBN)
Temperature  
Mean Temperature 50 °F -  
Max Temperature 59 °F 57 °F 83 °F (1957)
Min Temperature 41 °F 32 °F 16 °F (1978)
Degree Days  
Heating Degree Days 16    
Moisture  
Dew Point 46 °F    
Average Humidity 93    
Maximum Humidity 100    
Minimum Humidity 76    
Precipitation  
Precipitation 0.00 in - - ()
Sea Level Pressure  
Sea Level Pressure 30.03 in    
Wind  
Wind Speed 5 mph (WNW)    
Max Wind Speed 12 mph    
Max Gust Speed 16 mph    
Visibility 10 miles    
Events      
Averages and records for this station are not official NWS values.
T = Trace of Precipitation, MM = Missing Value Source: NWS Daily Summary

Daily Weather History Graph

Daily Weather History Graph

Search for Another Location

Airport:

Trip Planner

Search our weather history database for the weather conditions in past years. The results will help you decide how hot, cold, wet, or windy it might be!

Date:

Astronomy

Feb. 08, 2013 Rise Set
Actual Time 7:20 AM EST 6:08 PM EST
Civil Twilight 6:54 AM EST 6:34 PM EST
Nautical Twilight 6:25 AM EST 7:03 PM EST
Astronomical Twilight 5:56 AM EST 7:32 PM EST
Moon 5:45 AM EST (2/8) 4:41 PM EST (2/8)
Length of Visible Light 11h 39m
Length of Day
10h 47m
Waning Crescent, 3% of the Moon is Illuminated
Feb 8
Waning Crescent
Feb 10
New
Feb 17
First Quarter
Feb 25
Full
Mar 4
Last Quarter

Hourly Weather History & Observations

Time (EST) Temp. Windchill Dew Point Humidity Pressure Visibility Wind Dir Wind Speed Gust Speed Precip Events Conditions
12:15 AM 43.3 °F 38.6 °F 43.3 °F 100% 29.97 in 10.0 mi North 8.1 mph - N/A   Overcast
12:35 AM 43.3 °F 37.7 °F 43.3 °F 100% 29.96 in 10.0 mi North 10.4 mph - N/A   Overcast
12:55 AM 43.3 °F 39.2 °F 43.3 °F 100% 29.94 in 10.0 mi North 6.9 mph - N/A   Overcast
1:15 AM 43.3 °F 39.9 °F 43.3 °F 100% 29.94 in 10.0 mi NNE 5.8 mph - N/A   Overcast
1:35 AM 43.2 °F 39.7 °F 43.2 °F 100% 29.95 in 10.0 mi North 5.8 mph - N/A   Overcast
1:55 AM 43.3 °F 41.7 °F 43.3 °F 100% 29.97 in 10.0 mi North 3.5 mph - N/A   Overcast
2:15 AM 43.3 °F 41.7 °F 43.3 °F 100% 29.97 in 10.0 mi NW 3.5 mph - N/A   Overcast
2:35 AM 43.3 °F 41.7 °F 43.3 °F 100% 29.97 in 10.0 mi NW 3.5 mph - N/A   Overcast
2:55 AM 43.3 °F 41.7 °F 43.3 °F 100% 29.96 in 10.0 mi NNW 3.5 mph - N/A   Overcast
3:15 AM 43.3 °F 41.7 °F 43.3 °F 100% 29.96 in 10.0 mi NW 3.5 mph - N/A   Overcast
3:35 AM 43.3 °F - 43.3 °F 100% 29.96 in 10.0 mi Calm Calm - N/A   Overcast
3:55 AM 43.3 °F 40.7 °F 43.3 °F 100% 29.96 in 10.0 mi NW 4.6 mph - N/A   Overcast
4:15 AM 43.3 °F 41.7 °F 43.3 °F 100% 29.96 in 10.0 mi NNW 3.5 mph - N/A   Overcast
4:35 AM 43.2 °F 40.5 °F 43.2 °F 100% 29.97 in 10.0 mi NNW 4.6 mph - N/A   Overcast
4:55 AM 43.2 °F 41.5 °F 43.2 °F 100% 29.97 in 10.0 mi NNW 3.5 mph - N/A   Overcast
5:15 AM 43.2 °F 40.5 °F 43.2 °F 100% 29.97 in 10.0 mi North 4.6 mph - N/A   Overcast
5:35 AM 43.0 °F - 43.0 °F 100% 29.97 in 10.0 mi Calm Calm - N/A   Overcast
5:55 AM 43.0 °F 40.3 °F 43.0 °F 100% 29.99 in 10.0 mi NW 4.6 mph - N/A   Overcast
6:15 AM 43.2 °F 41.5 °F 43.2 °F 100% 30.00 in 10.0 mi NW 3.5 mph - N/A   Overcast
6:35 AM 43.0 °F - 43.0 °F 100% 29.99 in 10.0 mi Calm Calm - N/A   Overcast
6:55 AM 42.3 °F - 42.3 °F 100% 29.99 in 10.0 mi Calm Calm - N/A   Overcast
7:15 AM 41.7 °F 39.8 °F 41.7 °F 100% 30.01 in 7.0 mi NW 3.5 mph - N/A   Overcast
7:35 AM 42.4 °F 40.7 °F 42.4 °F 100% 30.02 in 10.0 mi NNW 3.5 mph - N/A   Overcast
7:55 AM 43.0 °F 41.3 °F 43.0 °F 100% 30.03 in 10.0 mi West 3.5 mph - N/A   Overcast
8:15 AM 43.7 °F - 43.7 °F 100% 30.04 in 10.0 mi Calm Calm - N/A   Overcast
8:35 AM 43.9 °F - 43.9 °F 100% 30.05 in 10.0 mi Calm Calm - N/A   Overcast
8:55 AM 44.4 °F 42.9 °F 44.4 °F 100% 30.05 in 10.0 mi WNW 3.5 mph - N/A   Overcast
9:15 AM 44.8 °F 43.3 °F 44.6 °F 99% 30.05 in 10.0 mi NW 3.5 mph - N/A   Overcast
9:35 AM 45.5 °F 44.2 °F 45.1 °F 99% 30.04 in 10.0 mi West 3.5 mph - N/A   Overcast
9:55 AM 45.9 °F - 45.3 °F 98% 30.05 in 10.0 mi Calm Calm - N/A   Overcast
10:15 AM 46.4 °F 44.3 °F 45.5 °F 97% 30.05 in 10.0 mi SW 4.6 mph - N/A   Overcast
10:35 AM 47.5 °F - 46.2 °F 95% 30.05 in 10.0 mi SSW 3.5 mph - N/A   Overcast
10:55 AM 48.0 °F - 46.2 °F 93% 30.05 in 10.0 mi NW 3.5 mph - N/A   Overcast
11:15 AM 49.3 °F - 46.4 °F 90% 30.04 in 10.0 mi NW 3.5 mph - N/A   Mostly Cloudy
11:35 AM 51.4 °F - 47.7 °F 87% 30.04 in 10.0 mi West 4.6 mph - N/A   Scattered Clouds
11:55 AM 52.3 °F - 47.8 °F 85% 30.04 in 10.0 mi WNW 6.9 mph - N/A   Scattered Clouds
12:15 PM 53.6 °F - 48.4 °F 82% 30.04 in 10.0 mi WNW 8.1 mph - N/A   Mostly Cloudy
12:35 PM 55.4 °F - 49.5 °F 80% 30.03 in 10.0 mi West 10.4 mph - N/A   Mostly Cloudy
12:55 PM 56.8 °F - 50.4 °F 79% 30.02 in 10.0 mi WSW 9.2 mph - N/A   Scattered Clouds
1:15 PM 57.2 °F - 50.2 °F 77% 30.01 in 10.0 mi WSW 4.6 mph - N/A   Scattered Clouds
1:35 PM 58.5 °F - 51.3 °F 77% 30.00 in 10.0 mi WSW 4.6 mph - N/A   Scattered Clouds
1:55 PM 58.3 °F - 50.9 °F 76% 30.00 in 10.0 mi WNW 10.4 mph - N/A   Scattered Clouds
2:15 PM 57.4 °F - 50.4 °F 77% 30.00 in 10.0 mi WNW 10.4 mph - N/A   Mostly Cloudy
2:35 PM 57.9 °F - 50.9 °F 77% 30.00 in 10.0 mi WNW 9.2 mph - N/A   Mostly Cloudy
2:55 PM 57.7 °F - 50.7 °F 77% 30.00 in 10.0 mi WNW 10.4 mph 16.1 mph N/A   Scattered Clouds
3:15 PM 58.1 °F - 50.9 °F 77% 30.00 in 10.0 mi West 10.4 mph - N/A   Mostly Cloudy
3:35 PM 58.1 °F - 51.1 °F 77% 29.99 in 10.0 mi West 11.5 mph 16.1 mph N/A   Mostly Cloudy
3:55 PM 57.9 °F - 51.4 °F 79% 30.00 in 10.0 mi West 9.2 mph - N/A   Mostly Cloudy
4:15 PM 58.3 °F - 51.6 °F 78% 30.01 in 10.0 mi WSW 9.2 mph - N/A   Overcast
4:35 PM 58.3 °F - 51.4 °F 78% 30.01 in 10.0 mi West 11.5 mph 16.1 mph N/A   Mostly Cloudy
4:55 PM 57.7 °F - 51.6 °F 80% 30.01 in 10.0 mi West 4.6 mph - N/A   Overcast
5:15 PM 57.4 °F - 51.1 °F 79% 30.01 in 10.0 mi West 10.4 mph - N/A   Overcast
5:35 PM 57.0 °F - 51.3 °F 81% 30.03 in 10.0 mi West 11.5 mph - N/A   Overcast
5:55 PM 56.7 °F - 51.6 °F 83% 30.03 in 10.0 mi West 9.2 mph - N/A   Overcast
6:15 PM 55.6 °F - 51.1 °F 85% 30.04 in 10.0 mi West 5.8 mph - N/A   Scattered Clouds
6:55 PM 53.8 °F - 50.4 °F 88% 30.06 in 10.0 mi West 4.6 mph - N/A   Clear
7:15 PM 52.3 °F - 50.0 °F 92% 30.06 in 10.0 mi West 4.6 mph - N/A   Clear
7:35 PM 51.1 °F - 49.1 °F 93% 30.08 in 10.0 mi West 4.6 mph - N/A   Clear
7:55 PM 50.4 °F - 48.6 °F 94% 30.08 in 10.0 mi West 6.9 mph - N/A   Clear
8:15 PM 49.8 °F - 48.6 °F 95% 30.09 in 10.0 mi West 4.6 mph - N/A   Clear
8:35 PM 49.3 °F - 48.0 °F 95% 30.09 in 10.0 mi West 4.6 mph - N/A   Clear
8:55 PM 48.6 °F - 47.5 °F 96% 30.09 in 10.0 mi West 5.8 mph - N/A   Clear
9:15 PM 48.2 °F - 47.7 °F 98% 30.11 in 10.0 mi Calm Calm - N/A   Clear
9:35 PM 47.7 °F - 47.5 °F 99% 30.11 in 10.0 mi WNW 3.5 mph - N/A   Clear
9:55 PM 46.2 °F 45.0 °F 46.2 °F 100% 30.11 in 10.0 mi NW 3.5 mph - N/A   Clear
10:15 PM 45.1 °F 42.0 °F 45.1 °F 100% 30.12 in 10.0 mi WNW 5.8 mph - N/A   Clear
10:35 PM 44.4 °F 41.2 °F 44.4 °F 100% 30.13 in 10.0 mi WNW 5.8 mph - N/A   Clear
10:55 PM 43.2 °F 40.5 °F 43.2 °F 100% 30.14 in 10.0 mi West 4.6 mph - N/A   Clear
11:15 PM 42.8 °F 40.1 °F 42.8 °F 100% 30.16 in 10.0 mi WNW 4.6 mph - N/A   Clear
11:35 PM 42.3 °F 37.9 °F 42.3 °F 100% 30.16 in 10.0 mi NW 6.9 mph - N/A   Clear
11:55 PM 41.0 °F 37.1 °F 41.0 °F 100% 30.17 in 10.0 mi NW 5.8 mph - N/A   Clear